Retour au catalogue

THORAD AGENA D DEB

ActifLEO
NORAD 4993·DEBRIS·🇺🇸 United States

Lancé Apr 8, 1970 depuis Vandenberg Space Force Base

Loading…

Prochains Passages

TLE

Source: Space-Track
1  4993U 70025HP  26221.66132346  .00000581  00000-0  40381-3 0  9996
2  4993 100.2053  16.4298 0082598 209.9613 149.6808 14.02077336846221

Suivez THORAD AGENA D DEB en temps réel avec AllMySat

Download on the App Store